Regional Weather Roundup
Issued by NWS Little Rock, AR

Home | Current Version | Previous Version | Graphics & Text | Print | Product List | Glossary On
Versions: 1 2 3 4 5 6 7 8 9 10 11 12 13 14 15 16 17 18 19 20 21 22 23 24 25 26 27 28 29 30 31 32 33 34 35 36 37 38 39 40 41 42 43 44 45 46 47 48 49 50
000
ASUS44 KLZK 271105
RWRLZK

WEATHER ROUNDUP FOR ARKANSAS
NATIONAL WEATHER SERVICE LITTLE ROCK AR
600 AM CDT THU JUL 27 2017

NOTE: "FAIR" INDICATES FEW OR NO CLOUDS BELOW 12,000 FEET WITH NO
SIGNIFICANT WEATHER AND/OR OBSTRUCTIONS TO VISIBILITY.

ARZ001-003-010-029-271200-
NORTHWEST ARKANSAS

CITY           SKY/WX    TMP DP  RH WIND       PRES   REMARKS
FAYETTEVILLE   CLOUDY    78  72  81 SW7       30.00S
FORT SMITH     CLOUDY    78  75  90 NE3       29.97R
HARRISON       CLOUDY    77  70  79 S3        30.01S
BENTONVILLE    CLOUDY    79  70  73 S7        30.01S
ROGERS         LGT RAIN  79  71  76 S10       30.02R
SILOAM SPGS    CLOUDY    79  68  69 S6        30.00R
HIGHFILL       CLOUDY    78  72  81 S7        30.00S
SPRINGDALE     PTCLDY    81  70  69 SW6       30.03
$$

ARZ004-005-016-271200-
NORTH CENTRAL ARKANSAS

CITY           SKY/WX    TMP DP  RH WIND       PRES   REMARKS
BATESVILLE     CLOUDY    75  72  88 CALM      29.99R
FLIPPIN        CLOUDY    75  66  73 CALM      29.96F
MTN HOME       CLOUDY    75  70  84 CALM      29.98F
$$

ARZ040-041-271200-
WEST CENTRAL ARKANSAS

CITY           SKY/WX    TMP DP  RH WIND       PRES   REMARKS
MENA           CLEAR     81  79  94 W5        30.03S HX  89
MOUNT IDA      CLEAR     76  72  87 CALM      29.99R
$$

ARZ009-017-025-026-028-271200-
NORTHEAST ARKANSAS

CITY           SKY/WX    TMP DP  RH WIND       PRES   REMARKS
CORNING        FAIR      77  77 100 SW6       29.98R
JONESBORO      CLEAR     78  76  93 SW6       29.98R
WALNUT RIDGE   CLOUDY    75  72  88 S5        29.98R
BLYTHEVILLE    CLOUDY    76  75  97 SW7       29.99R
$$

ARZ022-023-033-042-044-271200-
CENTRAL ARKANSAS

CITY           SKY/WX    TMP DP  RH WIND       PRES   REMARKS
LITTLE ROCK    PTCLDY    77  75  93 SW3       30.00R
JACKSONVILLE   CLEAR     78  74  88 SW3       29.99R
CONWAY           N/A     77  75  94 CALM      29.97R
SEARCY         CLEAR     74  74 100 CALM      30.00S FOG
HOT SPRINGS    PTCLDY    78  74  87 CALM      30.01R
RUSSELLVILLE   CLOUDY    73  72  96 CALM      29.98R
CLINTON        FAIR      72  70  94 CALM      30.00R FOG
$$

ARZ036-271200-
EAST ARKANSAS

CITY           SKY/WX    TMP DP  RH WIND       PRES   REMARKS
WEST MEMPHIS   PTCLDY    75  75 100 S5        29.99S
$$

ARZ050-053-066-070-073-271200-
SOUTHWEST ARKANSAS

CITY           SKY/WX    TMP DP  RH WIND       PRES   REMARKS
ARKADELPHIA    FAIR      75  74  96 CALM      30.01R
CAMDEN         CLEAR     75  72  88 CALM      30.01R
TEXARKANA      CLEAR     77  74  90 S8        30.01R
EL DORADO      CLEAR     75  73  93 S5        30.03R
DE QUEEN       FOG       72  72 100 CALM      29.98S VSB 1/2
$$

ARZ056-057-069-271200-
SOUTHEAST ARKANSAS

CITY           SKY/WX    TMP DP  RH WIND       PRES   REMARKS
PINE BLUFF     CLEAR     76  73  91 S3        30.01R
STUTTGART      CLEAR     77  64  65 S7        30.01R
MONTICELLO     CLEAR     78  73  84 W6        30.02R

$$





USA.gov is the U.S. government's official web portal to all federal, state and local government web resources and services.